Погода в Спасской Губе

Россия / Республика Карелия     62°12′56″N   33°48′56″E
темп.,
°C
ветер,
м/с
пор.,
м/с
влажн.,
%
обл.,
%
осадки,
мм/ч
давл.,
гПа
погр.,
м
9 мая, вс
вс900:00+2зюз5989100 0.1 1004866
03:00+2з51186100 0.1 10061004
06:00+1зсз411835 0.0 1008854
09:00+5зсз58625 0.0 10091290
12:00+8зсз58415 0.0 10112115
15:00+9зсз5837100 0.0 10132492
18:00+10зсз384036 0.0 10152444
21:00+5юз26675 0.0 1016107
10 мая, пн
пн1000:00+3юз311725 0.0 1018291
03:00+3юз41175100 0.0 1019335
06:00+4ююз3117366 0.0 1020381
09:00+9ююз51056100 0.0 1020807
12:00+10ююз51256100 0.0 10201719
15:00+7ююз41187100 0.3 10201032
18:00+7ююз51390100 0.4 1020564
21:00+9ююз51690100 0.6 1020617
11 мая, вт
вт1100:00+11ююз4168893 0.3 1020552
03:00+11юз5158860 0.3 1021540
06:00+10юз51590100 0.0 1022507
09:00+14юз51279100 0.0 1022512
12:00+18юз5105932 0.0 1023957
15:00+20юз610496 0.0 10241187
18:00+19ююз511545 0.0 10241026
21:00+15ююз41264100 0.0 1025485
12 мая, ср
ср1200:00+12юз31375100 0.0 1026337
03:00+10ююз2987100 0.0 1027179
06:00+11ююз288116 0.0 1027225
09:00+18ююз35595 0.0 1027491
12:00+21ю35450 0.0 10271352
15:00+23ююв34390 0.0 10251722
18:00+20вюв45500 0.0 1025653
21:00+14юв23683 0.0 102541
13 мая, чт
чт1300:00+12ююв22690 0.0 102513
03:00+12ю22720 0.0 102520
06:00+13юв14765 0.0 1024107
09:00+18юв35625 0.0 1023456
12:00+22юв455211 0.0 10221154
15:00+22вюв4649100 0.0 10201231
18:00+18юв31065100 0.3 1018427
21:00+16ююв298185 0.6 1018341